Weather History for Szeged, Hungary

Change the Weather History Date:

Saturday, November 2, 2013

  Actual Average (LRAR) Record (LRAR)
Temperature  
Mean Temperature 56 °F -  
Max Temperature 68 °F 48 °F 71 °F (2008)
Min Temperature 44 °F 35 °F 26 °F (1997)
Degree Days  
Heating Degree Days 9    
Growing Degree Days 6 (Base 50)    
Moisture  
Dew Point 49 °F    
Average Humidity 79    
Maximum Humidity 100    
Minimum Humidity 50    
Precipitation  
Precipitation 0.00 in 0.05 in - ()
Sea Level Pressure  
Sea Level Pressure 30.02 in    
Wind  
Wind Speed 7 mph ()    
Max Wind Speed 16 mph    
Max Gust Speed 29 mph    
Visibility 4.3 miles    
Events Fog , Rain    
Averages and records for this station are not official NWS values.
T = Trace of Precipitation, MM = Missing Value Source: Averaged Metar Reports

Daily Weather History Graph

Daily Weather History Graph

Search for Another Location

Airport:

Trip Planner

Search our weather history database for the weather conditions in past years. The results will help you decide how hot, cold, wet, or windy it might be!

Date:

Astronomy

Nov. 02, 2013 Rise Set
Actual Time 6:22 AM CET 4:23 PM CET
Civil Twilight 5:50 AM CET 4:55 PM CET
Nautical Twilight 5:15 AM CET 5:30 PM CET
Astronomical Twilight 4:40 AM CET 6:05 PM CET
Moon 4:55 AM CET (11/2) 3:45 PM CET (11/2)
Length of Visible Light 11h 04m
Length of Day
10h 01m
Waning Crescent, 2% of the Moon is Illuminated
Nov 2
Waning Crescent
Nov 3
New
Nov 10
First Quarter
Nov 17
Full
Nov 25
Last Quarter

Hourly Weather History & Observations

Time (CET) Temp. Windchill Dew Point Humidity Pressure Visibility Wind Dir Wind Speed Gust Speed Precip Events Conditions
12:41 AM 46.4 °F 45.2 °F 44.6 °F 93% 30.15 in 0.4 mi SSE 3.5 mph - N/A Fog Fog
12:45 AM 46.4 °F 45.2 °F 44.6 °F 93% 30.12 in 0.2 mi SSE 3.5 mph - N/A Fog Fog
1:00 AM 46 °F - 44 °F 91% 30.14 in 0 mi SSE 4.5 mph - - Fog Partial Fog
1:45 AM 44.6 °F 43.1 °F 42.8 °F 93% 30.12 in 0.6 mi SE 3.5 mph - N/A Fog Fog
2:45 AM 44.6 °F 41.4 °F 44.6 °F 100% 30.09 in 3.1 mi SSE 5.8 mph - N/A   Scattered Clouds
3:45 AM 44.6 °F 41.4 °F 44.6 °F 100% 30.09 in 2.5 mi SE 5.8 mph - N/A   Scattered Clouds
4:45 AM 44.6 °F 42.2 °F 42.8 °F 93% 30.09 in 1.9 mi SE 4.6 mph - N/A   Scattered Clouds
5:15 AM 44.6 °F 42.2 °F 42.8 °F 93% 30.06 in 2.5 mi SE 4.6 mph - N/A   Partly Cloudy
5:45 AM 44.6 °F 40.7 °F 44.6 °F 100% 30.06 in 3.1 mi SE 6.9 mph - N/A   Scattered Clouds
6:15 AM 46.4 °F 42.9 °F 44.6 °F 93% 30.06 in 1.2 mi SE 6.9 mph - N/A   Partly Cloudy
6:45 AM 44.6 °F 40.7 °F 44.6 °F 100% 30.06 in 1.9 mi SE 6.9 mph - N/A   Scattered Clouds
7:00 AM 45 °F - 44 °F 95% 30.07 in 2 mi SE 6.7 mph - -   Mist
7:15 AM 46.4 °F 42.4 °F 44.6 °F 93% 30.06 in 1.9 mi SE 8.1 mph - N/A   Partly Cloudy
7:45 AM 48.2 °F - 46.4 °F 93% 30.06 in 2.8 mi SSE 6.9 mph - N/A   Scattered Clouds
8:15 AM 50.0 °F - 48.2 °F 94% 30.06 in 3.7 mi SSE 9.2 mph - N/A   Scattered Clouds
8:45 AM 51.8 °F - 48.2 °F 88% 30.04 in 5.0 mi SSE 11.5 mph - N/A   Partly Cloudy
9:15 AM 53.6 °F - 50.0 °F 88% 30.04 in - SSE 9.2 mph - N/A   Clear
9:45 AM 55.4 °F - 50.0 °F 82% 30.04 in - South 10.4 mph - N/A   Clear
10:15 AM 57.2 °F - 50.0 °F 77% 30.04 in - South 8.1 mph - N/A   Clear
10:45 AM 60.8 °F - 51.8 °F 72% 30.04 in - South 8.1 mph - N/A   Clear
11:15 AM 60.8 °F - 51.8 °F 72% 30.04 in - South 12.7 mph - N/A   Clear
11:45 AM 62.6 °F - 51.8 °F 68% 30.01 in - SSW 11.5 mph - N/A   Clear
12:15 PM 64.4 °F - 51.8 °F 64% 30.01 in - SSW 12.7 mph - N/A   Clear
12:45 PM 66.2 °F - 53.6 °F 64% 29.98 in - SSW 12.7 mph - N/A   Clear
1:00 PM 67 °F - 53 °F 50% 29.98 in 9 mi SSW 13.4 mph - -   Partly Cloudy
1:15 PM 68.0 °F - 50.0 °F 52% 29.98 in - SSW 13.8 mph - N/A   Clear
1:45 PM 66.2 °F - 50.0 °F 56% 29.98 in - SSW 11.5 mph - N/A   Clear
2:15 PM 66.2 °F - 50.0 °F 56% 29.95 in - SSW 11.5 mph - N/A   Clear
2:45 PM 66.2 °F - 50.0 °F 56% 29.95 in - SSW 9.2 mph - N/A   Clear
3:15 PM 66.2 °F - 50.0 °F 56% 29.95 in - SSW 8.1 mph - N/A   Clear
3:45 PM 64.4 °F - 50.0 °F 59% 29.95 in - SSW 9.2 mph - N/A   Clear
4:15 PM 64.4 °F - 50.0 °F 59% 29.95 in - SSW 8.1 mph - N/A   Clear
4:45 PM 62.6 °F - 50.0 °F 63% 29.95 in - South 6.9 mph - N/A   Clear
5:15 PM 60.8 °F - 50.0 °F 68% 29.95 in 6.2 mi South 5.8 mph - N/A   Overcast
5:25 PM 60.8 °F - 50.0 °F 68% 29.98 in 6.2 mi SSW 5.8 mph - N/A Rain Light Rain
5:45 PM 60.8 °F - 51.8 °F 72% 29.95 in 6.2 mi SW 6.9 mph - N/A Rain Light Rain
6:15 PM 62.6 °F - 51.8 °F 68% 29.98 in 6.2 mi SW 16.1 mph 28.8 mph N/A Rain Light Rain
6:45 PM 60.8 °F - 53.6 °F 77% 29.98 in 6.2 mi SW 9.2 mph - N/A Rain Light Rain
7:00 PM 61 °F - 53 °F 67% 29.97 in 12 mi SW 8.9 mph - - Rain Light Rain
7:15 PM 60.8 °F - 53.6 °F 77% 29.98 in 6.2 mi SW 8.1 mph - N/A Rain Light Rain
7:45 PM 59.0 °F - 53.6 °F 82% 29.98 in 6.2 mi SSW 5.8 mph - N/A Rain Light Rain
8:15 PM 59.0 °F - 53.6 °F 82% 29.98 in 6.2 mi SW 8.1 mph - N/A Rain Light Rain
8:45 PM 59.0 °F - 53.6 °F 82% 29.98 in 6.2 mi SW 10.4 mph - N/A Rain Light Rain
9:45 PM 57.2 °F - 53.6 °F 88% 29.98 in 6.2 mi South 6.9 mph - N/A Rain Light Rain
10:45 PM 57.2 °F - 53.6 °F 88% 29.95 in 6.2 mi SSW 6.9 mph - N/A   Overcast
11:45 PM 57.2 °F - 53.6 °F 88% 29.95 in 6.2 mi SSW 6.9 mph - N/A   Overcast